Location: Albany
(35.0000°S, 118.0000°E)
Time: 08:28:22
(UTC-04:00)

Atlas Centaur 2 - Visible Passes

Search period start: 29 March 2015 00:00
Search period end: 08 April 2015 00:00
Orbit: 460 x 1322 km, 30.4° (Epoch: 28 March)

Date Brightness Start Highest point End Pass type
(mag) Time Alt. Az. Time Alt. Az. Time Alt. Az.
29 Mar 3.4 16:04:16 32° N 16:04:16 32° N 16:09:13 10° NE visible
29 Mar 4.3 17:48:10 10° WNW 17:52:12 17° NNW 17:56:31 10° N visible
30 Mar 3.7 16:02:58 25° N 16:02:58 25° N 16:06:46 10° NE visible
30 Mar 4.4 17:47:42 10° NW 17:50:15 12° NNW 17:52:43 10° N visible
31 Mar 4.1 16:01:41 18° NNE 16:01:41 18° NNE 16:04:10 10° NNE visible
01 Apr 4.5 16:00:26 13° NNE 16:00:26 13° NNE 16:01:20 10° NNE visible
06 Apr 3.6 06:43:58 10° N 06:45:35 12° NNE 06:47:11 10° NE visible
07 Apr 3.4 06:40:46 10° NNW 06:43:42 16° NNE 06:46:09 11° NE visible
07 Apr 4.2 08:28:25 10° NW 08:28:54 13° NW 08:28:54 13° NW visible
